Location: ??????
(38.0131°N, 23.7723°E)
Time: 00:50:55
(UTC+00:00)

COSMOS 1275 DEB - Visible Passes

Search period start: 15 August 2022 00:00
Search period end: 25 August 2022 00:00
Orbit: 917 x 1017 km, 82.8° (Epoch: 07 August)

Date Brightness Start Highest point End Pass type
(mag) Time Alt. Az. Time Alt. Az. Time Alt. Az.
15 Aug ? 18:31:52 10° NW 18:35:01 15° W 18:38:13 10° WSW visible
18 Aug ? 17:54:06 10° NW 17:58:28 21° W 18:02:53 10° SW visible
19 Aug ? 18:19:34 10° WNW 18:20:50 11° W 18:22:06 10° W visible
22 Aug ? 03:18:15 10° E 03:19:04 10° E 03:19:54 10° ENE visible
22 Aug ? 17:40:50 10° NW 17:44:19 16° W 17:47:50 10° WSW visible
